Theta_e
346 349 349 348 349 350 351 352 352 352 354 356 356 357 356 355 351 350 349 350 348 348 347 349 349 353 351 353 353 351 352 351 351
351 349 349 348 349 350 351 352 353 353 353 355 356 356 357 356 354 352 351 348 349 349 349 349 352 353 353 352 354 354 354 349 351
350 349 349 349 348 348 351 352 353 353 353 355 356 355 356 356 355 354 352 351 348 348 349 350 351 354 353 354 353 352 352 352 352
350 349 349 348 348 349 352 351 351 352 354 354 355 355 355 355 353 352 352 352 350 348 351 351 351 352 352 352 352 353 350 348 352
348 352 348 347 347 347 349 351 350 350 350 350 352 353 355 356 355 354 353 352 351 348 349 352 352 352 351 353 352 352 350 352 351
343 346 351 350 349 350 350 349 352 353 353 352 351 354 355 355 355 355 354 353 352 351 351 353 353 353 353 353 354 353 354 354 353
345 347 354 353 352 353 352 352 352 354 354 353 354 354 354 355 355 355 354 353 353 353 353 353 354 354 354 354 353 353 353 352 353
346 347 347 347 352 354 354 354 354 355 355 355 355 356 356 356 356 356 354 353 353 354 354 353 354 354 354 354 354 352 352 352 352
347 347 346 346 348 351 354 354 356 356 356 357 357 357 358 358 358 357 357 357 356 356 355 354 354 354 354 354 352 350 349 350 354
345 346 346 347 347 348 353 355 354 356 357 357 358 359 359 359 359 358 358 357 357 357 356 355 355 355 355 354 354 355 353 351 352
342 343 344 346 345 345 345 350 353 356 357 358 359 359 359 359 359 359 358 358 357 357 356 356 356 356 356 356 358 356 353 352 351
338 338 340 341 341 342 344 347 351 355 357 358 359 360 360 360 360 359 358 357 357 357 357 357 357 358 358 359 359 354 351 349 351
335 335 336 339 341 341 342 344 345 351 356 357 358 359 360 360 360 360 359 358 357 358 358 358 358 359 359 359 355 350 347 342 340
332 332 333 334 337 341 342 343 345 347 352 355 357 358 359 360 360 360 360 360 359 358 359 357 359 359 354 351 348 336 328 326 333
331 331 331 332 334 339 341 341 344 345 347 350 356 358 358 359 360 359 359 360 360 359 359 359 356 352 347 341 335 328 325 325 325
330 329 329 329 331 334 339 341 344 346 348 348 348 351 358 358 359 358 356 359 359 358 356 354 351 347 343 338 334 329 324 324 323
330 329 329 328 329 331 334 337 341 344 345 347 350 351 355 358 358 359 358 358 358 354 351 349 346 343 340 336 333 332 331 330 329
329 328 329 329 329 329 331 333 336 340 342 345 347 350 354 351 348 346 346 348 351 349 348 345 341 337 335 333 332 330 329 326 327
327 327 329 329 330 330 330 331 334 336 340 343 345 347 352 350 347 342 339 337 332 334 334 334 333 332 332 329 328 325 321 323 324
326 326 327 328 329 330 330 331 332 335 339 342 343 346 345 346 342 340 341 340 336 330 324 324 326 328 328 326 322 320 319 323 324
Wind_Speed
3 3 10 15 17 19 20 20 23 24 23 20 21 21 22 20 17 15 14 15 17 17 17 15 9 10 11 10 9 9 9 9 9
7 6 10 13 16 22 23 24 23 24 21 21 21 20 20 18 17 17 15 13 16 16 14 11 10 9 10 11 10 10 10 9 10
11 5 10 12 12 17 18 21 21 20 22 22 21 20 20 18 19 18 16 15 16 18 16 14 10 12 11 10 10 10 11 8 7
10 9 5 9 12 16 17 16 16 17 18 18 19 20 18 17 18 18 19 18 17 18 16 15 14 11 9 10 10 9 9 9 5
8 7 3 4 9 15 17 18 19 15 15 14 15 16 17 18 18 18 19 19 17 19 19 17 14 12 12 10 10 8 9 8 6
7 7 4 5 6 8 12 17 18 19 16 15 14 14 17 17 17 18 19 19 19 18 17 16 15 14 14 13 10 10 9 9 10
7 4 4 3 5 7 10 13 18 18 18 16 16 17 18 18 18 19 20 20 20 19 18 17 16 14 13 14 13 13 13 13 14
8 6 7 7 2 6 10 11 12 14 14 16 15 15 16 18 18 18 18 18 18 17 18 18 17 16 16 16 16 17 16 17 16
9 8 7 7 6 3 8 12 14 14 15 15 17 18 17 17 17 16 16 15 16 16 17 19 19 20 19 18 17 17 19 17 14
10 10 9 9 7 5 5 9 13 16 17 17 18 18 18 17 16 16 16 17 18 18 18 18 19 17 17 17 15 16 19 19 17
10 11 9 9 10 9 7 6 9 13 16 19 19 18 17 16 16 16 18 19 19 19 19 19 19 18 16 15 14 20 19 16 14
8 9 9 10 11 12 10 9 7 7 12 16 19 19 18 18 19 18 17 17 18 17 17 17 18 17 15 15 14 18 14 9 8
8 9 11 13 14 11 10 9 8 8 10 15 19 20 21 20 20 21 21 20 20 20 19 17 16 15 15 14 17 16 11 8 7
6 9 11 12 14 13 11 9 9 9 10 11 14 16 18 20 21 20 20 21 20 19 18 16 15 12 8 9 7 5 5 4 3
7 8 10 13 14 14 15 12 11 11 9 9 7 12 17 20 22 23 22 20 19 18 17 16 14 13 10 7 5 6 2 1 1
8 10 11 11 13 16 15 13 12 13 11 10 10 11 14 18 20 23 25 26 24 22 22 19 17 17 15 11 9 4 4 2 5
10 13 14 14 14 15 17 17 15 13 12 11 11 12 14 15 18 21 24 26 28 28 28 25 22 19 18 17 14 10 6 2 4
16 17 17 16 16 18 19 19 20 16 13 12 10 10 9 6 9 8 13 15 16 21 22 25 26 23 20 19 18 16 11 4 1
21 20 20 18 18 20 22 20 21 21 15 12 9 8 9 9 9 9 9 9 10 15 17 22 21 21 16 16 16 18 17 6 1
25 23 22 22 20 20 20 22 22 22 18 13 10 10 10 9 12 12 13 13 15 16 16 14 20 23 20 18 20 18 14 10 3
Wind_Direction
12 184 197 202 185 187 188 189 189 194 187 194 201 201 201 203 208 205 205 203 203 199 198 203 197 216 229 240 250 243 239 241 247
46 145 193 200 192 188 184 192 192 195 195 192 197 201 205 200 204 210 208 203 206 205 205 209 214 220 224 228 240 244 239 241 231
26 53 177 197 199 200 194 192 193 196 197 198 198 198 201 201 205 203 206 206 207 208 207 212 214 220 218 225 232 250 250 238 211
21 31 155 186 192 193 195 198 183 195 198 199 202 201 198 200 206 206 206 210 211 214 215 218 221 227 228 231 229 232 239 238 230
19 33 83 174 193 193 201 198 183 190 194 195 201 203 202 201 201 207 208 212 212 212 218 223 223 227 233 233 228 234 239 246 253
353 359 91 143 173 196 205 198 204 198 195 195 202 196 199 203 206 206 210 213 215 215 216 222 223 225 226 229 230 230 235 239 244
10 24 63 94 168 190 209 207 201 202 198 189 187 197 200 198 206 211 215 215 213 214 217 220 224 227 230 232 235 241 248 246 246
44 27 18 7 261 191 200 203 210 215 209 208 208 206 205 204 206 209 215 213 213 210 216 220 223 227 231 236 238 245 244 242 245
39 21 13 5 346 273 212 206 200 204 208 209 208 209 212 206 201 207 211 209 206 208 214 217 221 227 233 240 246 247 245 241 253
33 21 5 356 345 325 298 219 210 205 203 199 201 208 205 203 201 198 203 201 201 206 212 217 222 229 235 240 242 249 250 252 255
34 20 6 352 342 330 319 303 232 214 204 197 195 203 201 197 201 201 199 200 200 201 205 210 215 222 224 232 240 245 247 254 265
31 19 1 347 337 337 322 309 304 246 223 213 199 196 202 197 196 199 200 205 202 202 203 207 211 215 218 227 237 254 265 257 257
15 3 354 349 340 327 329 330 298 278 246 231 226 203 195 201 198 197 193 199 204 203 202 207 217 220 220 224 223 241 228 238 267
9 358 349 339 333 331 333 320 322 289 278 256 246 233 208 198 200 203 201 196 198 201 205 208 206 211 210 209 206 238 239 265 263
331 339 338 340 333 326 326 323 311 297 293 290 280 250 225 208 199 199 198 198 197 197 199 199 188 176 186 195 186 196 231 311 324
308 311 319 323 323 321 312 316 319 309 311 291 286 265 242 228 213 202 194 189 191 192 186 184 179 180 177 179 184 200 187 217 346
295 293 295 304 303 301 303 303 307 311 313 307 291 270 252 232 222 204 202 198 190 180 181 182 180 181 179 174 174 181 194 241 307
293 293 288 283 280 282 281 287 295 295 306 307 296 278 251 214 204 197 172 186 207 198 195 184 175 175 179 177 173 167 164 176 301
289 287 288 286 280 276 274 276 278 287 286 290 287 267 236 218 201 205 211 186 192 194 189 178 167 163 172 177 167 164 147 141 166
287 283 278 278 278 279 273 268 268 271 269 268 266 265 265 227 211 224 214 195 182 168 173 177 175 175 169 173 166 156 143 120 173